Time,TemperatureF,DewpointF,PressureIn,WindDirection,WindDirectionDegrees,WindSpeedMPH,WindSpeedGustMPH,Humidity,HourlyPrecipIn,Conditions,Clouds,dailyrainin,SolarRadiationWatts/m^2,SoftwareType,DateUTC
2013-08-23 00:02:00,70.2,68.1,30.07,South,173,0.0,0.0,93,0.00,CLR,,0.00,0.0,WeatherDisplay:10.37,2013-08-23 05:02:00,
2013-08-23 00:07:00,70.1,68.0,30.07,South,173,0.0,0.0,93,0.00,CLR,,0.00,0.0,WeatherDisplay:10.37,2013-08-23 05:07:00,
2013-08-23 00:12:00,70.1,68.0,30.07,South,173,0.0,0.0,93,0.00,CLR,,0.00,0.0,WeatherDisplay:10.37,2013-08-23 05:12:00,
2013-08-23 00:17:00,70.0,67.9,30.07,South,173,0.0,0.0,93,0.00,CLR,,0.00,0.0,WeatherDisplay:10.37,2013-08-23 05:17:00,
2013-08-23 00:23:00,70.0,67.9,30.07,South,173,0.0,0.0,93,0.00,CLR,,0.00,0.0,WeatherDisplay:10.37,2013-08-23 05:23:00,
2013-08-23 00:28:00,69.9,67.8,30.07,South,173,0.0,0.0,93,0.00,CLR,,0.00,0.0,WeatherDisplay:10.37,2013-08-23 05:28:00,
2013-08-23 00:33:00,69.8,67.7,30.07,South,173,0.0,0.0,93,0.00,CLR,,0.00,0.0,WeatherDisplay:10.37,2013-08-23 05:33:00,
2013-08-23 00:39:00,69.8,68.0,30.07,South,173,0.0,0.0,94,0.00,CLR,,0.00,0.0,WeatherDisplay:10.37,2013-08-23 05:39:00,
2013-08-23 00:44:00,69.7,67.9,30.07,South,173,0.0,0.0,94,0.00,CLR,,0.00,0.0,WeatherDisplay:10.37,2013-08-23 05:44:00,
2013-08-23 00:49:00,69.7,67.6,30.07,South,173,0.0,0.0,93,0.00,CLR,,0.00,0.0,WeatherDisplay:10.37,2013-08-23 05:49:00,
2013-08-23 00:54:00,69.6,67.8,30.07,South,173,0.0,0.0,94,0.00,CLR,,0.00,0.0,WeatherDisplay:10.37,2013-08-23 05:54:00,
2013-08-23 00:59:00,69.7,67.6,30.07,South,173,0.0,0.0,93,0.00,CLR,,0.00,0.0,WeatherDisplay:10.37,2013-08-23 05:59:00,
2013-08-23 01:05:00,69.6,67.5,30.08,South,173,0.0,0.0,93,0.00,CLR,,0.00,0.0,WeatherDisplay:10.37,2013-08-23 06:05:00,
2013-08-23 01:10:00,69.2,67.4,30.07,South,173,0.0,0.0,94,0.00,CLR,,0.00,0.0,WeatherDisplay:10.37,2013-08-23 06:10:00,
2013-08-23 01:15:00,69.2,67.4,30.07,South,173,0.0,0.0,94,0.00,CLR,,0.00,0.0,WeatherDisplay:10.37,2013-08-23 06:15:00,
2013-08-23 01:21:00,69.0,67.2,30.07,South,173,0.0,0.0,94,0.00,CLR,,0.00,0.0,WeatherDisplay:10.37,2013-08-23 06:21:00,
2013-08-23 01:26:00,68.9,67.1,30.07,South,173,0.0,0.0,94,0.00,CLR,,0.00,0.0,WeatherDisplay:10.37,2013-08-23 06:26:00,
2013-08-23 01:31:00,68.8,67.0,30.07,South,173,0.0,0.0,94,0.00,CLR,,0.00,0.0,WeatherDisplay:10.37,2013-08-23 06:31:00,
2013-08-23 01:36:00,69.0,66.6,30.07,South,173,0.0,0.0,92,0.00,CLR,,0.00,0.0,WeatherDisplay:10.37,2013-08-23 06:36:00,
2013-08-23 01:42:00,69.2,66.5,30.07,South,173,0.0,0.0,91,0.00,CLR,,0.00,0.0,WeatherDisplay:10.37,2013-08-23 06:42:00,
2013-08-23 01:47:00,69.3,66.5,30.07,South,173,0.0,0.0,91,0.00,CLR,CLR,0.00,0.0,WeatherDisplay:10.37,2013-08-23 06:47:00,
2013-08-23 01:52:00,69.6,66.9,30.07,South,173,0.0,0.0,91,0.00,CLR,CLR,0.00,0.0,WeatherDisplay:10.37,2013-08-23 06:52:00,
2013-08-23 01:57:00,69.9,67.1,30.07,South,173,0.0,0.0,91,0.00,CLR,CLR,0.00,0.0,WeatherDisplay:10.37,2013-08-23 06:57:00,
2013-08-23 02:02:00,69.9,66.8,30.07,South,173,0.0,0.0,90,0.00,CLR,CLR,0.00,0.0,WeatherDisplay:10.37,2013-08-23 07:02:00,
2013-08-23 02:07:00,70.0,67.2,30.07,South,173,0.0,0.0,91,0.00,CLR,CLR,0.00,0.0,WeatherDisplay:10.37,2013-08-23 07:07:00,
2013-08-23 02:12:00,69.9,67.2,30.07,South,173,0.0,0.0,91,0.00,CLR,CLR,0.00,0.0,WeatherDisplay:10.37,2013-08-23 07:12:00,
2013-08-23 02:17:00,69.8,67.0,30.07,South,173,0.0,0.0,91,0.00,CLR,CLR,0.00,0.0,WeatherDisplay:10.37,2013-08-23 07:17:00,
2013-08-23 02:22:00,69.9,67.2,30.07,South,173,0.0,0.0,91,0.00,CLR,CLR,0.00,0.0,WeatherDisplay:10.37,2013-08-23 07:22:00,
2013-08-23 02:27:00,69.8,67.1,30.07,SSE,168,0.0,1.0,91,0.00,CLR,CLR,0.00,0.0,WeatherDisplay:10.37,2013-08-23 07:27:00,
2013-08-23 02:32:00,69.8,67.4,30.07,NE,37,0.0,0.0,92,0.00,CLR,,0.00,0.0,WeatherDisplay:10.37,2013-08-23 07:32:00,
2013-08-23 02:37:00,70.0,67.3,30.07,ENE,77,0.0,2.0,91,0.00,CLR,CLR,0.00,0.0,WeatherDisplay:10.37,2013-08-23 07:37:00,
2013-08-23 02:42:00,69.9,67.5,30.07,SE,139,0.0,0.0,92,0.00,CLR,CLR,0.00,0.0,WeatherDisplay:10.37,2013-08-23 07:42:00,
2013-08-23 02:47:00,69.7,67.3,30.07,SE,144,0.0,0.0,92,0.00,CLR,CLR,0.00,0.0,WeatherDisplay:10.37,2013-08-23 07:47:00,
2013-08-23 02:52:00,69.5,67.1,30.07,SE,144,0.0,0.0,92,0.00,CLR,CLR,0.00,0.0,WeatherDisplay:10.37,2013-08-23 07:52:00,
2013-08-23 02:57:00,69.5,67.0,30.07,SE,144,0.0,0.0,92,0.00,CLR,CLR,0.00,0.0,WeatherDisplay:10.37,2013-08-23 07:57:00,
2013-08-23 03:02:00,69.3,67.2,30.08,SE,144,0.0,0.0,93,0.00,CLR,CLR,0.00,0.0,WeatherDisplay:10.37,2013-08-23 08:02:00,
2013-08-23 03:07:00,69.4,67.3,30.08,SE,144,0.0,0.0,93,0.00,CLR,CLR,0.00,0.0,WeatherDisplay:10.37,2013-08-23 08:07:00,
2013-08-23 03:12:00,69.3,67.2,30.08,SE,144,0.0,0.0,93,0.00,CLR,CLR,0.00,0.0,WeatherDisplay:10.37,2013-08-23 08:12:00,
2013-08-23 03:17:00,69.3,67.2,30.08,SE,144,0.0,0.0,93,0.00,CLR,CLR,0.00,0.0,WeatherDisplay:10.37,2013-08-23 08:17:00,
2013-08-23 03:22:00,69.1,67.0,30.08,SE,144,0.0,0.0,93,0.00,CLR,CLR,0.00,0.0,WeatherDisplay:10.37,2013-08-23 08:22:00,
2013-08-23 03:27:00,68.9,66.8,30.08,SE,144,0.0,0.0,93,0.00,CLR,,0.00,0.0,WeatherDisplay:10.37,2013-08-23 08:27:00,
2013-08-23 03:32:00,68.8,67.0,30.08,SE,144,0.0,0.0,94,0.00,CLR,CLR,0.00,0.0,WeatherDisplay:10.37,2013-08-23 08:32:00,
2013-08-23 03:37:00,68.8,67.0,30.09,SE,144,0.0,0.0,94,0.00,CLR,CLR,0.00,0.0,WeatherDisplay:10.37,2013-08-23 08:37:00,
2013-08-23 03:42:00,68.8,67.0,30.08,SE,144,0.0,0.0,94,0.00,CLR,CLR,0.00,0.0,WeatherDisplay:10.37,2013-08-23 08:42:00,
2013-08-23 03:47:00,68.9,67.1,30.08,SE,144,0.0,0.0,94,0.00,CLR,CLR,0.00,0.0,WeatherDisplay:10.37,2013-08-23 08:47:00,
2013-08-23 03:52:00,69.0,67.2,30.08,SE,144,0.0,0.0,94,0.00,CLR,CLR,0.00,0.0,WeatherDisplay:10.37,2013-08-23 08:52:00,
2013-08-23 03:57:00,69.2,67.4,30.08,SE,144,0.0,0.0,94,0.00,CLR,CLR,0.00,0.0,WeatherDisplay:10.37,2013-08-23 08:57:00,
2013-08-23 04:02:00,68.9,66.8,30.08,SE,144,0.0,0.0,93,0.00,CLR,CLR,0.00,0.0,WeatherDisplay:10.37,2013-08-23 09:02:00,
2013-08-23 04:07:00,68.9,67.1,30.09,SE,144,0.0,0.0,94,0.00,CLR,CLR,0.00,0.0,WeatherDisplay:10.37,2013-08-23 09:07:00,
2013-08-23 04:12:00,68.6,66.8,30.08,SE,144,0.0,0.0,94,0.00,CLR,CLR,0.00,0.0,WeatherDisplay:10.37,2013-08-23 09:12:00,
2013-08-23 04:17:00,68.4,66.9,30.09,SE,144,0.0,0.0,95,0.00,CLR,CLR,0.00,0.0,WeatherDisplay:10.37,2013-08-23 09:17:00,
2013-08-23 04:22:00,68.5,67.1,30.09,SE,144,0.0,0.0,95,0.00,CLR,CLR,0.00,0.0,WeatherDisplay:10.37,2013-08-23 09:22:00,
2013-08-23 04:27:00,68.6,66.8,30.08,SE,144,0.0,0.0,94,0.00,CLR,CLR,0.00,0.0,WeatherDisplay:10.37,2013-08-23 09:27:00,
2013-08-23 04:32:00,68.5,66.7,30.08,SE,144,0.0,0.0,94,0.00,CLR,CLR,0.00,0.0,WeatherDisplay:10.37,2013-08-23 09:32:00,
2013-08-23 04:37:00,68.5,66.7,30.08,SE,144,0.0,0.0,94,0.00,CLR,CLR,0.00,0.0,WeatherDisplay:10.37,2013-08-23 09:37:00,
2013-08-23 04:42:00,68.4,66.9,30.08,SE,144,0.0,0.0,95,0.00,CLR,CLR,0.00,0.0,WeatherDisplay:10.37,2013-08-23 09:42:00,
2013-08-23 04:47:00,68.3,66.8,30.08,SE,144,0.0,0.0,95,0.00,CLR,CLR,0.00,0.0,WeatherDisplay:10.37,2013-08-23 09:47:00,
2013-08-23 04:52:00,68.5,67.0,30.08,SE,144,0.0,0.0,95,0.00,CLR,CLR,0.00,0.0,WeatherDisplay:10.37,2013-08-23 09:52:00,
2013-08-23 04:57:00,68.7,67.2,30.08,SE,144,0.0,0.0,95,0.00,CLR,,0.00,0.0,WeatherDisplay:10.37,2013-08-23 09:57:00,
2013-08-23 05:02:00,68.8,67.3,30.08,SE,144,0.0,0.0,95,0.00,CLR,CLR,0.00,0.0,WeatherDisplay:10.37,2013-08-23 10:02:00,
2013-08-23 05:07:00,68.7,67.2,30.08,SE,144,0.0,0.0,95,0.00,CLR,CLR,0.00,0.0,WeatherDisplay:10.37,2013-08-23 10:07:00,
2013-08-23 05:12:00,68.8,67.0,30.08,SE,144,0.0,0.0,94,0.00,CLR,CLR,0.00,0.0,WeatherDisplay:10.37,2013-08-23 10:12:00,
2013-08-23 05:17:00,68.9,67.4,30.08,SE,144,0.0,0.0,95,0.00,CLR,CLR,0.00,0.0,WeatherDisplay:10.37,2013-08-23 10:17:00,
2013-08-23 05:22:00,69.0,67.2,30.08,SE,141,1.0,4.0,94,0.00,CLR,CLR,0.00,0.0,WeatherDisplay:10.37,2013-08-23 10:22:00,
2013-08-23 05:27:00,69.1,67.3,30.08,ESE,121,0.0,0.0,94,0.00,CLR,CLR,0.00,0.0,WeatherDisplay:10.37,2013-08-23 10:27:00,
2013-08-23 05:32:00,69.0,67.2,30.08,ESE,107,0.0,0.0,94,0.00,CLR,CLR,0.00,0.0,WeatherDisplay:10.37,2013-08-23 10:32:00,
2013-08-23 05:37:00,69.0,67.2,30.08,ESE,107,0.0,0.0,94,0.00,CLR,CLR,0.00,0.0,WeatherDisplay:10.37,2013-08-23 10:37:00,
2013-08-23 05:42:00,69.0,67.2,30.08,ESE,107,0.0,0.0,94,0.00,CLR,CLR,0.00,0.0,WeatherDisplay:10.37,2013-08-23 10:42:00,
2013-08-23 05:47:00,68.9,67.1,30.09,ESE,107,0.0,0.0,94,0.00,CLR,CLR,0.00,0.0,WeatherDisplay:10.37,2013-08-23 10:47:00,
2013-08-23 05:52:00,68.7,66.9,30.09,ESE,107,0.0,0.0,94,0.00,CLR,CLR,0.00,0.0,WeatherDisplay:10.37,2013-08-23 10:52:00,
2013-08-23 05:57:00,68.6,66.8,30.09,ESE,107,0.0,0.0,94,0.00,CLR,CLR,0.00,0.0,WeatherDisplay:10.37,2013-08-23 10:57:00,
2013-08-23 06:02:00,68.6,66.8,30.09,ESE,107,0.0,0.0,94,0.00,CLR,CLR,0.00,0.0,WeatherDisplay:10.37,2013-08-23 11:02:00,
2013-08-23 06:07:00,68.6,66.8,30.08,ESE,107,0.0,0.0,94,0.00,CLR,CLR,0.00,0.0,WeatherDisplay:10.37,2013-08-23 11:07:00,
2013-08-23 06:12:00,68.5,66.7,30.08,ESE,107,0.0,0.0,94,0.00,CLR,CLR,0.00,0.0,WeatherDisplay:10.37,2013-08-23 11:12:00,
2013-08-23 06:17:00,68.4,66.6,30.09,ESE,107,0.0,0.0,94,0.00,CLR,CLR,0.00,0.0,WeatherDisplay:10.37,2013-08-23 11:17:00,
2013-08-23 06:22:00,68.4,66.9,30.08,ESE,108,0.0,2.0,95,0.00,CLR,CLR,0.00,0.0,WeatherDisplay:10.37,2013-08-23 11:22:00,
2013-08-23 06:27:00,68.3,66.8,30.08,ESE,116,0.0,0.0,95,0.00,CLR,,0.00,0.0,WeatherDisplay:10.37,2013-08-23 11:27:00,
2013-08-23 06:32:00,68.2,66.7,30.09,ESE,116,0.0,0.0,95,0.00,CLR,CLR,0.00,0.0,WeatherDisplay:10.37,2013-08-23 11:32:00,
2013-08-23 06:37:00,68.3,66.8,30.09,ESE,114,0.0,2.0,95,0.00,CLR,CLR,0.00,0.0,WeatherDisplay:10.37,2013-08-23 11:37:00,
2013-08-23 06:42:00,68.4,66.9,30.09,East,90,0.0,0.0,95,0.00,CLR,CLR,0.00,5.0,WeatherDisplay:10.37,2013-08-23 11:42:00,
2013-08-23 06:47:00,68.5,67.0,30.08,ENE,72,0.0,2.0,95,0.00,CLR,CLR,0.00,7.0,WeatherDisplay:10.37,2013-08-23 11:47:00,
2013-08-23 06:52:00,68.6,67.1,30.09,East,92,0.0,0.0,95,0.00,CLR,CLR,0.00,11.0,WeatherDisplay:10.37,2013-08-23 11:52:00,
2013-08-23 06:57:00,68.7,67.2,30.09,ESE,109,0.0,0.0,95,0.00,CLR,CLR,0.00,16.0,WeatherDisplay:10.37,2013-08-23 11:57:00,
2013-08-23 07:02:00,68.8,67.3,30.09,ESE,109,0.0,0.0,95,0.00,CLR,CLR,0.00,23.0,WeatherDisplay:10.37,2013-08-23 12:02:00,
2013-08-23 07:07:00,68.9,67.4,30.09,ESE,109,0.0,0.0,95,0.00,CLR,CLR,0.00,28.0,WeatherDisplay:10.37,2013-08-23 12:07:00,
2013-08-23 07:12:00,69.1,67.6,30.09,ESE,109,0.0,0.0,95,0.00,CLR,CLR,0.00,25.0,WeatherDisplay:10.37,2013-08-23 12:12:00,
2013-08-23 07:17:00,69.2,67.4,30.09,ESE,109,0.0,0.0,94,0.00,CLR,CLR,0.00,25.0,WeatherDisplay:10.37,2013-08-23 12:17:00,
2013-08-23 07:22:00,69.2,67.4,30.09,ESE,109,0.0,0.0,94,0.00,CLR,,0.00,30.0,WeatherDisplay:10.37,2013-08-23 12:22:00,
2013-08-23 07:27:00,69.3,67.5,30.09,ESE,109,0.0,1.0,94,0.00,CLR,CLR,0.00,39.0,WeatherDisplay:10.37,2013-08-23 12:27:00,
2013-08-23 07:32:00,69.5,67.7,30.09,East,81,0.0,0.0,94,0.00,CLR,CLR,0.00,39.0,WeatherDisplay:10.37,2013-08-23 12:32:00,
2013-08-23 07:37:00,69.6,67.8,30.10,ENE,64,0.0,0.0,94,0.00,CLR,CLR,0.00,40.0,WeatherDisplay:10.37,2013-08-23 12:37:00,
2013-08-23 07:42:00,69.8,68.0,30.09,ENE,63,0.0,0.0,94,0.00,CLR,CLR,0.00,49.0,WeatherDisplay:10.37,2013-08-23 12:42:00,
2013-08-23 07:47:00,70.0,67.9,30.09,ENE,63,0.0,0.0,93,0.00,CLR,CLR,0.00,58.0,WeatherDisplay:10.37,2013-08-23 12:47:00,
2013-08-23 07:52:00,70.2,68.1,30.09,East,98,0.0,2.0,93,0.00,CLR,CLR,0.00,69.0,WeatherDisplay:10.37,2013-08-23 12:52:00,
2013-08-23 07:57:00,70.5,68.1,30.09,SSE,158,0.0,0.0,92,0.00,CLR,,0.00,77.0,WeatherDisplay:10.37,2013-08-23 12:57:00,
2013-08-23 08:02:00,70.6,68.2,30.09,SSE,158,0.1,1.2,92,0.00,CLR,,0.00,74.0,WeatherDisplay:10.37,2013-08-23 13:02:00,
2013-08-23 08:07:00,70.6,68.2,30.09,East,96,0.0,2.3,92,0.00,CLR,,0.00,76.0,WeatherDisplay:10.37,2013-08-23 13:07:00,
2013-08-23 08:12:00,70.5,68.1,30.09,NNE,30,0.0,1.2,92,0.00,CLR,,0.00,69.0,WeatherDisplay:10.37,2013-08-23 13:12:00,
2013-08-23 08:18:00,70.5,68.1,30.09,East,81,0.0,0.0,92,0.00,CLR,,0.00,69.0,WeatherDisplay:10.37,2013-08-23 13:18:00,
2013-08-23 08:23:00,70.6,68.2,30.09,East,81,0.0,0.0,92,0.00,CLR,,0.00,81.0,WeatherDisplay:10.37,2013-08-23 13:23:00,
2013-08-23 08:28:00,70.8,68.4,30.09,East,82,0.2,1.2,92,0.00,CLR,,0.00,84.0,WeatherDisplay:10.37,2013-08-23 13:28:00,
2013-08-23 08:33:00,70.9,68.5,30.09,East,82,0.0,0.0,92,0.00,CLR,,0.00,95.0,WeatherDisplay:10.37,2013-08-23 13:33:00,
2013-08-23 08:39:00,71.1,68.7,30.09,ENE,57,0.0,1.2,92,0.00,CLR,,0.00,116.0,WeatherDisplay:10.37,2013-08-23 13:39:00,
2013-08-23 08:44:00,71.2,68.4,30.09,ENE,57,0.0,0.0,91,0.00,CLR,,0.00,102.0,WeatherDisplay:10.37,2013-08-23 13:44:00,
2013-08-23 08:49:00,71.3,68.9,30.09,ENE,57,0.0,0.0,92,0.00,CLR,,0.00,104.0,WeatherDisplay:10.37,2013-08-23 13:49:00,
2013-08-23 08:54:00,71.6,69.2,30.10,ENE,57,0.0,0.0,92,0.00,CLR,,0.00,114.0,WeatherDisplay:10.37,2013-08-23 13:54:00,
2013-08-23 09:00:00,71.9,69.4,30.10,ESE,106,0.1,1.2,92,0.00,CLR,,0.00,163.0,WeatherDisplay:10.37,2013-08-23 14:00:00,
2013-08-23 09:06:00,72.1,69.6,30.10,East,90,0.1,1.2,92,0.00,CLR,,0.00,151.0,WeatherDisplay:10.37,2013-08-23 14:06:00,
2013-08-23 09:11:00,72.7,69.6,30.10,ESE,115,0.0,0.0,90,0.00,CLR,,0.00,162.0,WeatherDisplay:10.37,2013-08-23 14:11:00,
2013-08-23 09:17:00,72.9,70.1,30.10,ESE,119,0.0,0.0,91,0.00,CLR,,0.00,144.0,WeatherDisplay:10.37,2013-08-23 14:17:00,
2013-08-23 09:22:00,73.5,70.4,30.10,ESE,120,0.0,0.0,90,0.00,CLR,,0.00,137.0,WeatherDisplay:10.37,2013-08-23 14:22:00,
2013-08-23 09:27:00,73.9,70.1,30.10,ENE,61,0.0,0.0,88,0.00,CLR,,0.00,132.0,WeatherDisplay:10.37,2013-08-23 14:27:00,
2013-08-23 09:33:00,74.2,70.4,30.10,SE,132,0.5,3.5,88,0.00,CLR,,0.00,135.0,WeatherDisplay:10.37,2013-08-23 14:33:00,
2013-08-23 09:38:00,74.3,70.5,30.10,South,179,0.0,0.0,88,0.00,CLR,,0.00,141.0,WeatherDisplay:10.37,2013-08-23 14:38:00,
2013-08-23 09:43:00,75.1,71.0,30.10,South,178,0.0,0.0,87,0.00,CLR,,0.00,200.0,WeatherDisplay:10.37,2013-08-23 14:43:00,
2013-08-23 09:48:00,75.5,71.0,30.10,ESE,107,0.0,3.5,86,0.00,CLR,,0.00,153.0,WeatherDisplay:10.37,2013-08-23 14:48:00,
2013-08-23 09:54:00,75.5,71.0,30.10,SSE,156,0.0,0.0,86,0.00,CLR,,0.00,188.0,WeatherDisplay:10.37,2013-08-23 14:54:00,
2013-08-23 09:59:00,75.9,71.1,30.10,East,81,0.0,0.0,85,0.00,CLR,,0.00,176.0,WeatherDisplay:10.37,2013-08-23 14:59:00,
2013-08-23 10:02:00,79.1,72.4,30.10,North,351,0.0,0.0,80,0.00,OVC,OVC,0.00,223.0,WeatherDisplay:10.37,2013-08-23 15:02:00,
2013-08-23 10:04:00,76.2,71.4,30.10,ENE,70,0.1,0.0,85,0.00,CLR,,0.00,223.0,WeatherDisplay:10.37,2013-08-23 15:04:00,
2013-08-23 10:09:00,76.4,71.6,30.10,NNW,340,0.0,0.0,85,0.00,CLR,,0.00,244.0,WeatherDisplay:10.37,2013-08-23 15:09:00,
2013-08-23 10:15:00,76.2,71.4,30.10,ESE,123,0.5,2.3,85,0.00,CLR,,0.00,288.0,WeatherDisplay:10.37,2013-08-23 15:15:00,
2013-08-23 10:20:00,76.7,71.5,30.10,ESE,108,0.2,8.1,84,0.00,CLR,,0.00,241.0,WeatherDisplay:10.37,2013-08-23 15:20:00,
2013-08-23 10:25:00,77.1,71.5,30.10,ESE,123,0.6,3.5,83,0.00,CLR,,0.00,292.0,WeatherDisplay:10.37,2013-08-23 15:25:00,
2013-08-23 10:30:00,76.9,71.7,30.10,NNE,23,0.0,1.2,84,0.00,CLR,,0.00,290.0,WeatherDisplay:10.37,2013-08-23 15:30:00,
2013-08-23 10:36:00,77.3,72.1,30.10,North,11,0.0,3.5,84,0.00,CLR,,0.00,278.0,WeatherDisplay:10.37,2013-08-23 15:36:00,
2013-08-23 10:41:00,77.5,71.9,30.10,East,93,0.0,1.2,83,0.00,CLR,,0.00,227.0,WeatherDisplay:10.37,2013-08-23 15:41:00,
2013-08-23 10:46:00,78.0,72.4,30.10,NNE,19,0.8,3.5,83,0.00,CLR,,0.00,199.0,WeatherDisplay:10.37,2013-08-23 15:46:00,
2013-08-23 10:51:00,78.4,72.4,30.10,ESE,103,0.0,2.3,82,0.00,CLR,,0.00,422.0,WeatherDisplay:10.37,2013-08-23 15:51:00,
2013-08-23 10:57:00,78.2,71.9,30.10,SE,132,1.0,4.0,81,0.00,CLR,CLR,0.00,213.0,WeatherDisplay:10.37,2013-08-23 15:57:00,
2013-08-23 11:04:00,79.3,72.2,30.10,North,355,3.0,3.5,79,0.00,CLR,,0.00,190.0,WeatherDisplay:10.37,2013-08-23 16:04:00,
2013-08-23 11:10:00,79.4,72.3,30.10,SSW,202,1.2,3.5,79,0.00,CLR,,0.00,264.0,WeatherDisplay:10.37,2013-08-23 16:10:00,
2013-08-23 11:15:00,80.0,72.5,30.10,NNE,33,0.4,3.5,78,0.00,CLR,,0.00,712.0,WeatherDisplay:10.37,2013-08-23 16:15:00,
2013-08-23 11:20:00,79.7,72.2,30.10,SE,129,0.3,3.0,78,0.00,CLR,,0.00,724.0,WeatherDisplay:10.37,2013-08-23 16:20:00,
2013-08-23 11:25:00,80.5,72.2,30.10,SE,127,1.0,4.6,76,0.00,CLR,,0.00,735.0,WeatherDisplay:10.37,2013-08-23 16:25:00,
2013-08-23 11:31:00,81.1,72.0,30.10,SE,138,0.0,0.0,74,0.00,CLR,,0.00,738.0,WeatherDisplay:10.37,2013-08-23 16:31:00,
2013-08-23 11:36:00,80.9,72.2,30.10,SSE,167,1.0,3.5,75,0.00,CLR,,0.00,262.0,WeatherDisplay:10.37,2013-08-23 16:36:00,
2013-08-23 11:41:00,80.4,71.7,30.09,East,90,0.7,3.5,75,0.00,CLR,,0.00,223.0,WeatherDisplay:10.37,2013-08-23 16:41:00,
2013-08-23 11:46:00,80.4,72.5,30.10,ESE,104,0.0,1.2,77,0.00,CLR,,0.00,821.0,WeatherDisplay:10.37,2013-08-23 16:46:00,
2013-08-23 11:52:00,80.8,72.1,30.10,ESE,122,0.0,1.0,75,0.00,CLR,CLR,0.00,211.0,WeatherDisplay:10.37,2013-08-23 16:52:00,
2013-08-23 11:57:00,81.2,72.9,30.09,NNE,27,0.0,1.2,76,0.00,CLR,,0.00,795.0,WeatherDisplay:10.37,2013-08-23 16:57:00,
2013-08-23 12:02:00,81.4,73.1,30.09,ESE,113,0.1,1.2,76,0.00,CLR,,0.00,343.0,WeatherDisplay:10.37,2013-08-23 17:02:00,
2013-08-23 12:07:00,81.8,73.1,30.09,SSW,201,1.2,0.0,75,0.00,BKN,,0.00,473.0,WeatherDisplay:10.37,2013-08-23 17:07:00,
2013-08-23 12:13:00,82.1,72.6,30.09,ENE,69,0.0,1.2,73,0.00,BKN,,0.00,276.0,WeatherDisplay:10.37,2013-08-23 17:13:00,
2013-08-23 12:18:00,81.5,72.0,30.09,SE,134,0.5,3.5,73,0.00,BKN,,0.00,476.0,WeatherDisplay:10.37,2013-08-23 17:18:00,
2013-08-23 12:23:00,82.1,72.6,30.09,SSE,161,0.0,4.6,73,0.00,BKN,,0.00,313.0,WeatherDisplay:10.37,2013-08-23 17:23:00,
2013-08-23 12:28:00,81.9,72.4,30.09,NE,40,0.0,3.5,73,0.00,BKN,,0.00,519.0,WeatherDisplay:10.37,2013-08-23 17:28:00,
2013-08-23 12:34:00,81.3,72.2,30.08,East,94,0.1,2.3,74,0.00,BKN,,0.00,916.0,WeatherDisplay:10.37,2013-08-23 17:34:00,
2013-08-23 12:39:00,82.0,72.1,30.08,SE,126,0.1,1.2,72,0.00,BKN,,0.00,323.0,WeatherDisplay:10.37,2013-08-23 17:39:00,
2013-08-23 12:44:00,82.3,72.8,30.08,ESE,111,0.1,1.0,73,0.00,BKN,,0.00,490.0,WeatherDisplay:10.37,2013-08-23 17:44:00,
2013-08-23 12:49:00,82.4,72.5,30.07,NNE,19,2.0,3.5,72,0.00,BKN,,0.00,937.0,WeatherDisplay:10.37,2013-08-23 17:49:00,
2013-08-23 12:55:00,83.5,73.5,30.07,East,91,0.0,0.0,72,0.00,BKN,,0.00,909.0,WeatherDisplay:10.37,2013-08-23 17:55:00,
2013-08-23 13:00:00,83.7,72.4,30.07,ENE,63,0.2,2.3,69,0.00,BKN,,0.00,272.0,WeatherDisplay:10.37,2013-08-23 18:00:00,
2013-08-23 13:05:00,82.4,72.5,30.07,ESE,109,0.0,0.0,72,0.00,BKN,,0.00,353.0,WeatherDisplay:10.37,2013-08-23 18:05:00,
2013-08-23 13:11:00,82.9,72.5,30.07,ESE,105,0.7,3.5,71,0.00,BKN,,0.00,854.0,WeatherDisplay:10.37,2013-08-23 18:11:00,
2013-08-23 13:16:00,83.5,73.1,30.07,East,86,0.2,1.2,71,0.00,BKN,,0.00,940.0,WeatherDisplay:10.37,2013-08-23 18:16:00,
2013-08-23 13:21:00,84.5,72.8,30.07,ESE,115,0.0,2.3,68,0.00,BKN,,0.00,900.0,WeatherDisplay:10.37,2013-08-23 18:21:00,
2013-08-23 13:26:00,83.7,72.4,30.07,South,180,0.4,3.5,69,0.00,BKN,,0.00,301.0,WeatherDisplay:10.37,2013-08-23 18:26:00,
2013-08-23 13:32:00,83.8,72.1,30.06,NE,44,0.0,0.0,68,0.00,BKN,,0.00,863.0,WeatherDisplay:10.37,2013-08-23 18:32:00,
2013-08-23 13:37:00,84.8,72.6,30.06,ESE,106,0.0,6.0,67,0.00,BKN,BKN,0.00,863.0,WeatherDisplay:10.37,2013-08-23 18:37:00,
2013-08-23 13:42:00,86.3,73.6,30.06,South,189,0.0,2.0,66,0.00,BKN,BKN,0.00,921.0,WeatherDisplay:10.37,2013-08-23 18:42:00,
2013-08-23 13:47:00,86.5,72.9,30.06,ESE,120,0.0,1.2,64,0.00,BKN,,0.00,930.0,WeatherDisplay:10.37,2013-08-23 18:47:00,
2013-08-23 13:52:00,85.6,72.4,30.06,SSE,159,1.0,2.0,65,0.00,BKN,BKN,0.00,160.0,WeatherDisplay:10.37,2013-08-23 18:52:00,
2013-08-23 13:57:00,84.4,72.7,30.06,South,180,2.0,6.0,68,0.00,BKN,BKN,0.00,898.0,WeatherDisplay:10.37,2013-08-23 18:57:00,
2013-08-23 14:02:00,85.2,72.1,30.06,ESE,107,0.9,3.5,65,0.00,BKN,,0.00,250.0,WeatherDisplay:10.37,2013-08-23 19:02:00,
2013-08-23 14:07:00,85.0,71.9,30.05,NNW,346,1.5,6.9,65,0.00,SCT,,0.00,251.0,WeatherDisplay:10.37,2013-08-23 19:07:00,
2013-08-23 14:12:00,85.1,72.5,30.05,SE,144,0.4,3.5,66,0.00,SCT,,0.00,844.0,WeatherDisplay:10.37,2013-08-23 19:12:00,
2013-08-23 14:17:00,84.6,72.0,30.05,SW,219,0.0,3.5,66,0.00,SCT,,0.00,213.0,WeatherDisplay:10.37,2013-08-23 19:17:00,
2013-08-23 14:22:00,85.9,73.7,30.03,NNE,13,0.0,1.0,67,0.00,OVC,OVC,0.00,207.0,WeatherDisplay:10.37,2013-08-23 19:22:00,
2013-08-23 14:23:00,85.0,73.3,30.05,SSW,196,1.1,3.5,68,0.00,SCT,,0.00,926.0,WeatherDisplay:10.37,2013-08-23 19:23:00,
2013-08-23 14:27:00,84.8,72.6,30.03,SSE,149,0.0,5.0,67,0.00,OVC,OVC,0.00,179.0,WeatherDisplay:10.37,2013-08-23 19:27:00,
2013-08-23 14:28:00,86.4,72.8,30.04,SE,130,0.8,3.5,64,0.00,SCT,,0.00,895.0,WeatherDisplay:10.37,2013-08-23 19:28:00,
2013-08-23 14:32:00,85.1,72.9,30.03,SSE,156,1.0,5.0,67,0.00,SCT,SCT,0.00,210.0,WeatherDisplay:10.37,2013-08-23 19:32:00,
2013-08-23 14:33:00,86.5,72.9,30.04,NE,49,0.1,1.2,64,0.00,SCT,,0.00,264.0,WeatherDisplay:10.37,2013-08-23 19:33:00,
2013-08-23 14:38:00,86.4,72.8,30.05,NE,34,1.0,8.0,64,0.00,SCT,,0.00,881.0,WeatherDisplay:10.37,2013-08-23 19:38:00,
2013-08-23 14:44:00,86.9,73.3,30.04,SE,134,0.0,1.2,64,0.00,SCT,,0.00,689.0,WeatherDisplay:10.37,2013-08-23 19:44:00,
2013-08-23 14:49:00,87.4,73.3,30.04,SE,141,0.2,1.2,63,0.00,SCT,,0.00,860.0,WeatherDisplay:10.37,2013-08-23 19:49:00,
2013-08-23 14:54:00,86.4,72.3,30.04,ESE,107,0.0,1.2,63,0.00,SCT,,0.00,578.0,WeatherDisplay:10.37,2013-08-23 19:54:00,
2013-08-23 15:00:00,86.5,72.9,30.04,ENE,63,0.0,0.0,64,0.00,SCT,,0.00,647.0,WeatherDisplay:10.37,2013-08-23 20:00:00,
2013-08-23 15:05:00,87.1,72.5,30.04,SE,131,0.1,2.3,62,0.00,SCT,,0.00,285.0,WeatherDisplay:10.37,2013-08-23 20:05:00,
2013-08-23 15:10:00,86.5,72.4,30.04,SE,134,0.1,1.2,63,0.00,SCT,,0.00,301.0,WeatherDisplay:10.37,2013-08-23 20:10:00,
2013-08-23 15:16:00,85.5,72.4,30.03,SE,131,0.1,1.2,65,0.00,SCT,,0.00,250.0,WeatherDisplay:10.37,2013-08-23 20:16:00,
2013-08-23 15:21:00,85.9,72.8,30.04,NE,42,0.0,0.0,65,0.00,SCT,,0.00,229.0,WeatherDisplay:10.37,2013-08-23 20:21:00,
2013-08-23 15:26:00,85.0,71.9,30.03,SSE,164,0.0,0.0,65,0.00,SCT,,0.00,148.0,WeatherDisplay:10.37,2013-08-23 20:26:00,
2013-08-23 15:36:00,84.9,71.8,30.03,SE,130,2.0,2.3,65,0.00,SCT,,0.00,255.0,WeatherDisplay:10.37,2013-08-23 20:36:00,
2013-08-23 15:41:00,85.0,71.9,30.03,East,88,0.1,1.2,65,0.00,SCT,,0.00,185.0,WeatherDisplay:10.37,2013-08-23 20:41:00,
2013-08-23 15:46:00,85.4,72.3,30.03,NNE,33,0.1,2.0,65,0.00,SCT,,0.00,490.0,WeatherDisplay:10.37,2013-08-23 20:46:00,
2013-08-23 15:51:00,85.7,73.0,30.03,SSE,150,0.0,1.2,66,0.00,SCT,,0.00,295.0,WeatherDisplay:10.37,2013-08-23 20:51:00,
2013-08-23 15:57:00,86.4,72.8,30.02,South,179,0.0,0.0,64,0.00,SCT,,0.00,698.0,WeatherDisplay:10.37,2013-08-23 20:57:00,
2013-08-23 16:02:00,87.6,72.9,30.02,South,177,0.0,1.0,62,0.00,SCT,SCT,0.00,441.0,WeatherDisplay:10.37,2013-08-23 21:02:00,
2013-08-23 16:07:00,87.1,72.5,30.02,SSE,164,0.0,2.0,62,0.00,SCT,SCT,0.00,642.0,WeatherDisplay:10.37,2013-08-23 21:07:00,
2013-08-23 16:12:00,87.2,72.1,30.02,ESE,103,0.0,1.0,61,0.00,SCT,SCT,0.00,547.0,WeatherDisplay:10.37,2013-08-23 21:12:00,
2013-08-23 16:17:00,87.2,72.1,30.02,SE,126,0.0,1.0,61,0.00,SCT,SCT,0.00,211.0,WeatherDisplay:10.37,2013-08-23 21:17:00,
2013-08-23 16:22:00,86.3,72.2,30.02,East,97,0.0,1.0,63,0.00,SCT,SCT,0.00,251.0,WeatherDisplay:10.37,2013-08-23 21:22:00,
2013-08-23 16:27:00,87.1,72.5,30.01,South,175,0.0,0.0,62,0.00,SCT,,0.00,652.0,WeatherDisplay:10.37,2013-08-23 21:27:00,
2013-08-23 16:32:00,86.6,72.5,30.01,East,89,0.0,1.2,63,0.00,SCT,,0.00,165.0,WeatherDisplay:10.37,2013-08-23 21:32:00,
2013-08-23 16:37:00,86.1,72.5,30.02,South,179,0.5,4.6,64,0.00,SCT,,0.00,185.0,WeatherDisplay:10.37,2013-08-23 21:37:00,
2013-08-23 16:42:00,86.0,71.9,30.02,South,171,0.0,1.2,63,0.00,SCT,,0.00,142.0,WeatherDisplay:10.37,2013-08-23 21:42:00,
2013-08-23 16:48:00,85.6,72.0,30.01,NNW,342,0.0,1.0,64,0.00,SCT,,0.00,473.0,WeatherDisplay:10.37,2013-08-23 21:48:00,
2013-08-23 16:53:00,86.0,71.9,30.01,East,96,1.1,5.8,63,0.00,SCT,,0.00,163.0,WeatherDisplay:10.37,2013-08-23 21:53:00,
2013-08-23 16:58:00,85.4,71.4,30.01,SSW,205,0.0,1.2,63,0.00,SCT,,0.00,120.0,WeatherDisplay:10.37,2013-08-23 21:58:00,
2013-08-23 17:03:00,85.5,72.4,30.01,SE,144,0.1,1.0,65,0.00,SCT,,0.00,156.0,WeatherDisplay:10.37,2013-08-23 22:03:00,
2013-08-23 17:09:00,85.9,72.8,30.01,SSE,155,0.0,0.0,65,0.00,SCT,,0.00,158.0,WeatherDisplay:10.37,2013-08-23 22:09:00,
2013-08-23 17:14:00,85.6,72.5,30.01,SE,140,0.0,1.2,65,0.00,SCT,,0.00,132.0,WeatherDisplay:10.37,2013-08-23 22:14:00,
2013-08-23 17:19:00,85.6,72.9,30.01,SSE,165,0.2,1.2,66,0.00,SCT,,0.00,153.0,WeatherDisplay:10.37,2013-08-23 22:19:00,
2013-08-23 17:25:00,86.2,73.0,30.01,SE,136,0.0,0.0,65,0.00,SCT,,0.00,188.0,WeatherDisplay:10.37,2013-08-23 22:25:00,
2013-08-23 17:30:00,86.5,73.3,30.01,SSE,148,0.1,1.2,65,0.00,SCT,,0.00,127.0,WeatherDisplay:10.37,2013-08-23 22:30:00,
2013-08-23 17:35:00,86.2,73.0,30.01,SE,132,0.5,3.5,65,0.00,SCT,,0.00,111.0,WeatherDisplay:10.37,2013-08-23 22:35:00,
2013-08-23 17:40:00,85.8,72.2,30.01,NNW,342,0.2,1.2,64,0.00,SCT,,0.00,114.0,WeatherDisplay:10.37,2013-08-23 22:40:00,
2013-08-23 17:46:00,85.8,72.2,30.01,SW,234,0.0,3.5,64,0.00,SCT,,0.00,107.0,WeatherDisplay:10.37,2013-08-23 22:46:00,
2013-08-23 17:51:00,85.7,73.0,30.01,SE,131,0.0,1.2,66,0.00,SCT,,0.00,93.0,WeatherDisplay:10.37,2013-08-23 22:51:00,
2013-08-23 17:56:00,85.4,72.7,30.01,East,93,0.0,1.2,66,0.00,SCT,,0.00,84.0,WeatherDisplay:10.37,2013-08-23 22:56:00,
2013-08-23 18:01:00,85.4,72.7,30.01,ESE,114,0.1,3.5,66,0.00,SCT,,0.00,86.0,WeatherDisplay:10.37,2013-08-23 23:01:00,
2013-08-23 18:07:00,85.2,72.6,30.01,SW,233,1.2,3.0,66,0.00,SCT,,0.00,77.0,WeatherDisplay:10.37,2013-08-23 23:07:00,
2013-08-23 18:12:00,85.0,71.9,30.01,SE,143,1.0,6.0,65,0.00,SCT,SCT,0.00,72.0,WeatherDisplay:10.37,2013-08-23 23:12:00,
2013-08-23 18:17:00,84.8,72.6,30.01,SSE,153,0.5,4.6,67,0.00,SCT,,0.00,65.0,WeatherDisplay:10.37,2013-08-23 23:17:00,
2013-08-23 18:22:00,84.7,72.5,30.01,ENE,74,0.0,1.0,67,0.00,SCT,SCT,0.00,62.0,WeatherDisplay:10.37,2013-08-23 23:22:00,
2013-08-23 18:27:00,84.6,72.0,30.01,ESE,104,1.0,3.0,66,0.00,SCT,SCT,0.00,58.0,WeatherDisplay:10.37,2013-08-23 23:27:00,
2013-08-23 18:32:00,84.4,72.2,30.00,East,97,1.0,5.0,67,0.00,SCT,SCT,0.00,54.0,WeatherDisplay:10.37,2013-08-23 23:32:00,
2013-08-23 18:37:00,84.1,72.0,30.00,East,88,0.0,3.0,67,0.00,SCT,SCT,0.00,53.0,WeatherDisplay:10.37,2013-08-23 23:37:00,
2013-08-23 18:42:00,84.0,71.8,30.01,East,96,0.0,3.0,67,0.00,SCT,SCT,0.00,56.0,WeatherDisplay:10.37,2013-08-23 23:42:00,
2013-08-23 18:47:00,83.9,72.2,30.01,East,98,1.0,4.0,68,0.00,SCT,SCT,0.00,53.0,WeatherDisplay:10.37,2013-08-23 23:47:00,
2013-08-23 18:52:00,83.8,72.1,30.01,East,94,0.0,2.0,68,0.00,SCT,SCT,0.00,46.0,WeatherDisplay:10.37,2013-08-23 23:52:00,
2013-08-23 18:57:00,83.6,71.9,30.00,SE,137,0.0,3.0,68,0.00,SCT,SCT,0.00,42.0,WeatherDisplay:10.37,2013-08-23 23:57:00,
2013-08-23 19:02:00,83.4,71.7,30.00,SE,137,0.0,0.0,68,0.00,SCT,,0.00,39.0,WeatherDisplay:10.37,2013-08-24 00:02:00,
2013-08-23 19:07:00,83.3,72.1,30.00,ESE,115,0.1,0.0,69,0.00,SCT,,0.00,35.0,WeatherDisplay:10.37,2013-08-24 00:07:00,
2013-08-23 19:12:00,83.1,71.9,30.00,ENE,67,0.0,0.0,69,0.00,SCT,,0.00,30.0,WeatherDisplay:10.37,2013-08-24 00:12:00,
2013-08-23 19:18:00,83.0,71.8,30.00,East,99,0.0,0.0,69,0.00,SCT,,0.00,28.0,WeatherDisplay:10.37,2013-08-24 00:18:00,
2013-08-23 19:23:00,82.8,71.6,30.00,North,360,0.0,2.0,69,0.00,SCT,,0.00,23.0,WeatherDisplay:10.37,2013-08-24 00:23:00,
2013-08-23 19:28:00,82.7,71.5,30.00,North,11,0.0,0.0,69,0.00,SCT,,0.00,21.0,WeatherDisplay:10.37,2013-08-24 00:28:00,
2013-08-23 19:33:00,82.5,71.3,30.00,SE,143,0.3,0.0,69,0.00,SCT,,0.00,14.0,WeatherDisplay:10.37,2013-08-24 00:33:00,
2013-08-23 19:39:00,82.4,71.2,30.01,ENE,62,0.2,1.2,69,0.00,SCT,,0.00,9.0,WeatherDisplay:10.37,2013-08-24 00:39:00,
2013-08-23 19:44:00,82.3,71.1,30.01,SE,137,0.4,2.3,69,0.00,SCT,,0.00,7.0,WeatherDisplay:10.37,2013-08-24 00:44:00,
2013-08-23 19:49:00,82.1,70.9,30.01,NNE,32,0.2,3.0,69,0.00,SCT,,0.00,5.0,WeatherDisplay:10.37,2013-08-24 00:49:00,
2013-08-23 19:54:00,82.2,71.0,30.01,SE,136,0.1,0.0,69,0.00,SCT,,0.00,0.0,WeatherDisplay:10.37,2013-08-24 00:54:00,
2013-08-23 20:00:00,82.1,71.3,30.01,ESE,116,0.0,0.0,70,0.00,SCT,,0.00,0.0,WeatherDisplay:10.37,2013-08-24 01:00:00,
2013-08-23 20:05:00,81.8,71.5,30.01,SE,137,0.0,1.0,71,0.00,SCT,,0.00,0.0,WeatherDisplay:10.37,2013-08-24 01:05:00,
2013-08-23 20:10:00,81.4,71.5,30.01,ENE,63,0.9,3.5,72,0.00,SCT,,0.00,0.0,WeatherDisplay:10.37,2013-08-24 01:10:00,
2013-08-23 20:15:00,81.5,71.6,30.01,North,9,0.0,0.0,72,0.00,SCT,,0.00,0.0,WeatherDisplay:10.37,2013-08-24 01:15:00,
2013-08-23 20:21:00,81.2,71.3,30.01,NE,39,0.0,1.2,72,0.00,SCT,,0.00,0.0,WeatherDisplay:10.37,2013-08-24 01:21:00,
2013-08-23 20:26:00,81.1,71.6,30.01,NE,39,0.0,0.0,73,0.00,SCT,,0.00,0.0,WeatherDisplay:10.37,2013-08-24 01:26:00,
2013-08-23 20:31:00,80.9,71.4,30.01,SSE,148,0.0,2.3,73,0.00,SCT,,0.00,0.0,WeatherDisplay:10.37,2013-08-24 01:31:00,
2013-08-23 20:36:00,80.8,71.3,30.01,WSW,251,0.0,0.0,73,0.00,SCT,,0.00,0.0,WeatherDisplay:10.37,2013-08-24 01:36:00,
2013-08-23 20:42:00,80.6,71.1,30.01,NNW,337,0.0,0.0,73,0.00,SCT,,0.00,0.0,WeatherDisplay:10.37,2013-08-24 01:42:00,
2013-08-23 20:47:00,80.4,71.3,30.01,NW,326,0.0,1.0,74,0.00,SCT,SCT,0.00,0.0,WeatherDisplay:10.37,2013-08-24 01:47:00,
2013-08-23 20:52:00,80.3,70.9,30.02,NNW,341,0.0,2.0,73,0.00,SCT,SCT,0.00,0.0,WeatherDisplay:10.37,2013-08-24 01:52:00,
2013-08-23 20:57:00,80.3,71.3,30.02,East,101,0.0,2.0,74,0.00,SCT,SCT,0.00,0.0,WeatherDisplay:10.37,2013-08-24 01:57:00,
2013-08-23 21:02:00,80.2,71.2,30.02,ENE,70,0.2,1.2,74,0.00,SCT,,0.00,0.0,WeatherDisplay:10.37,2013-08-24 02:02:00,
2013-08-23 21:07:00,80.1,71.1,30.02,SE,130,0.0,1.2,74,0.00,SCT,,0.00,0.0,WeatherDisplay:10.37,2013-08-24 02:07:00,
2013-08-23 21:13:00,80.0,71.0,30.03,ESE,121,0.1,3.5,74,0.00,SCT,,0.00,0.0,WeatherDisplay:10.37,2013-08-24 02:13:00,
2013-08-23 21:18:00,80.0,71.0,30.03,SSW,200,0.3,2.3,74,0.00,SCT,,0.00,0.0,WeatherDisplay:10.37,2013-08-24 02:18:00,
2013-08-23 21:23:00,79.8,70.8,30.03,NNW,345,0.4,3.5,74,0.00,SCT,,0.00,0.0,WeatherDisplay:10.37,2013-08-24 02:23:00,
2013-08-23 21:28:00,79.7,70.7,30.03,ESE,123,0.9,3.5,74,0.00,SCT,,0.00,0.0,WeatherDisplay:10.37,2013-08-24 02:28:00,
2013-08-23 21:34:00,79.5,70.9,30.03,North,9,0.0,2.3,75,0.00,SCT,,0.00,0.0,WeatherDisplay:10.37,2013-08-24 02:34:00,
2013-08-23 21:39:00,79.4,70.8,30.03,ESE,123,1.0,3.5,75,0.00,SCT,,0.00,0.0,WeatherDisplay:10.37,2013-08-24 02:39:00,
2013-08-23 21:44:00,79.2,70.6,30.03,SE,142,0.4,2.3,75,0.00,SCT,,0.00,0.0,WeatherDisplay:10.37,2013-08-24 02:44:00,
2013-08-23 21:49:00,79.0,70.4,30.03,ENE,61,0.2,2.3,75,0.00,SCT,,0.00,0.0,WeatherDisplay:10.37,2013-08-24 02:49:00,
2013-08-23 21:55:00,78.9,70.3,30.03,NNE,28,1.0,3.5,75,0.00,SCT,,0.00,0.0,WeatherDisplay:10.37,2013-08-24 02:55:00,
2013-08-23 22:00:00,78.7,70.1,30.03,NNE,22,0.1,1.2,75,0.00,SCT,,0.00,0.0,WeatherDisplay:10.37,2013-08-24 03:00:00,
2013-08-23 22:05:00,78.7,70.1,30.03,ESE,104,0.2,6.9,75,0.00,SCT,,0.00,0.0,WeatherDisplay:10.37,2013-08-24 03:05:00,
2013-08-23 22:10:00,78.6,70.0,30.03,ESE,116,0.0,0.0,75,0.00,SCT,,0.00,0.0,WeatherDisplay:10.37,2013-08-24 03:10:00,
2013-08-23 22:16:00,78.5,69.9,30.03,ESE,120,0.1,1.0,75,0.00,SCT,,0.00,0.0,WeatherDisplay:10.37,2013-08-24 03:16:00,
2013-08-23 22:21:00,78.3,69.7,30.03,East,101,1.1,3.5,75,0.00,SCT,,0.00,0.0,WeatherDisplay:10.37,2013-08-24 03:21:00,
2013-08-23 22:26:00,78.2,69.6,30.03,ESE,107,1.5,3.5,75,0.00,SCT,,0.00,0.0,WeatherDisplay:10.37,2013-08-24 03:26:00,
2013-08-23 22:31:00,78.1,69.5,30.03,SSE,151,1.6,3.5,75,0.00,SCT,,0.00,0.0,WeatherDisplay:10.37,2013-08-24 03:31:00,
2013-08-23 22:37:00,78.2,69.6,30.03,ESE,107,0.7,3.5,75,0.00,SCT,,0.00,0.0,WeatherDisplay:10.37,2013-08-24 03:37:00,
2013-08-23 22:42:00,78.0,69.5,30.03,SE,130,0.0,3.0,75,0.00,SCT,SCT,0.00,0.0,WeatherDisplay:10.37,2013-08-24 03:42:00,
2013-08-23 22:47:00,78.0,69.4,30.03,SE,139,0.0,2.0,75,0.00,SCT,SCT,0.00,0.0,WeatherDisplay:10.37,2013-08-24 03:47:00,
2013-08-23 22:52:00,77.8,69.2,30.03,NE,43,0.0,5.0,75,0.00,SCT,SCT,0.00,0.0,WeatherDisplay:10.37,2013-08-24 03:52:00,
2013-08-23 22:57:00,77.7,69.1,30.03,ENE,57,0.0,2.0,75,0.00,SCT,SCT,0.00,0.0,WeatherDisplay:10.37,2013-08-24 03:57:00,
2013-08-23 23:01:00,77.6,69.0,30.03,NNE,27,0.1,0.0,75,0.00,SCT,,0.00,0.0,WeatherDisplay:10.37,2013-08-24 04:01:00,
2013-08-23 23:02:00,77.6,69.0,30.03,NNE,27,0.0,0.0,75,0.00,SCT,,0.00,0.0,WeatherDisplay:10.37,2013-08-24 04:02:00,
2013-08-23 23:04:00,77.5,68.9,30.04,ESE,116,0.0,1.2,75,0.00,SCT,,0.00,0.0,WeatherDisplay:10.37,2013-08-24 04:04:00,
2013-08-23 23:09:00,77.4,69.2,30.03,ESE,120,0.0,0.0,76,0.00,SCT,,0.00,0.0,WeatherDisplay:10.37,2013-08-24 04:09:00,
2013-08-23 23:15:00,77.3,69.1,30.04,SSE,156,0.1,3.5,76,0.00,SCT,,0.00,0.0,WeatherDisplay:10.37,2013-08-24 04:15:00,
2013-08-23 23:20:00,77.2,69.0,30.03,ESE,107,0.0,0.0,76,0.00,SCT,,0.00,0.0,WeatherDisplay:10.37,2013-08-24 04:20:00,
2013-08-23 23:25:00,77.1,68.9,30.04,SSE,149,0.0,0.0,76,0.00,SCT,,0.00,0.0,WeatherDisplay:10.37,2013-08-24 04:25:00,
2013-08-23 23:30:00,77.0,68.9,30.04,ESE,123,0.0,3.5,76,0.00,SCT,,0.00,0.0,WeatherDisplay:10.37,2013-08-24 04:30:00,
2013-08-23 23:36:00,76.8,69.0,30.04,ENE,67,0.1,1.2,77,0.00,SCT,,0.00,0.0,WeatherDisplay:10.37,2013-08-24 04:36:00,
2013-08-23 23:41:00,76.7,68.9,30.03,ESE,111,0.3,3.5,77,0.00,SCT,,0.00,0.0,WeatherDisplay:10.37,2013-08-24 04:41:00,
2013-08-23 23:46:00,76.6,68.8,30.04,ESE,110,0.6,3.5,77,0.00,SCT,,0.00,0.0,WeatherDisplay:10.37,2013-08-24 04:46:00,
2013-08-23 23:52:00,76.6,68.8,30.04,SE,130,0.1,1.0,77,0.00,SCT,,0.00,0.0,WeatherDisplay:10.37,2013-08-24 04:52:00,
2013-08-23 23:57:00,76.4,68.7,30.04,SE,127,0.0,3.0,77,0.00,SCT,SCT,0.00,0.0,WeatherDisplay:10.37,2013-08-24 04:57:00,